Uranium City, Saskatchewan

11:25 PM CST on December 03, 2016 (GMT -0600)
Uranium City

Weather History for CWDC - December, 2013

Change the Weather History Date:

Saturday, December 21, 2013

  Actual Average Record
Temperature  
Mean Temperature -37 °F -  
Max Temperature -29 °F - - ()
Min Temperature -45 °F - - ()
Degree Days  
Heating Degree Days 102    
Moisture  
Dew Point -47 °F    
Average Humidity 61    
Maximum Humidity 74    
Minimum Humidity 40    
Precipitation  
Precipitation 0.00 in - - ()
Sea Level Pressure  
Sea Level Pressure 30.25 in    
Wind  
Wind Speed 2 mph ()    
Max Wind Speed 5 mph    
Max Gust Speed -    
T = Trace of Precipitation, MM = Missing Value Source: Averaged Metar Reports

Daily Weather History Graph

Daily Weather History Graph

Search for Another Location

Airport or City:

Trip Planner

Search our weather history database for the weather conditions in past years. The results will help you decide how hot, cold, wet, or windy it might be!

Date:

Astronomy

Dec. 21, 2013 Rise Set
Actual Time 10:12 AM CST 4:12 PM CST
Civil Twilight 9:15 AM CST 5:08 PM CST
Nautical Twilight 8:19 AM CST 6:04 PM CST
Astronomical Twilight 7:28 AM CST 6:55 PM CST
Moon 9:36 PM CST (12/21) 11:40 AM CST (12/21)
Length of Visible Light 7h 53m
Length of Day
6h 00m
Waning Gibbous, 84% of the Moon is Illuminated
Dec 21
Waning Gibbous
Dec 25
Last Quarter
Jan 1
New
Jan 7
First Quarter
Jan 15
Full

Hourly Weather History & Observations

Time (CST) Temp. Windchill Dew Point Humidity Pressure Visibility Wind Dir Wind Speed Gust Speed Precip Events Conditions
12:00 AM -45 °F - -53 °F 43% 30.19 in - ENE 3.5 mph - -  
12:00 AM -44.7 °F -58.9 °F -53.0 °F 62% 30.19 in - ENE 3.5 mph - N/A   Unknown
1:00 AM -45.4 °F -62.9 °F -53.9 °F 62% 30.19 in - ENE 4.6 mph - N/A   Unknown
2:00 AM -45.4 °F -59.7 °F -53.7 °F 62% 30.19 in - ENE 3.5 mph - N/A   Unknown
3:00 AM -45 °F - -53 °F 41% 30.20 in - ENE 4.6 mph - -  
3:00 AM -45.0 °F -62.5 °F -53.3 °F 62% 30.20 in - ENE 4.6 mph - N/A   Unknown
4:00 AM -43.4 °F -57.5 °F -51.5 °F 63% 30.20 in - ENE 3.5 mph - N/A   Unknown
5:00 AM -43.1 °F -60.2 °F -51.2 °F 63% 30.21 in - ENE 4.6 mph - N/A   Unknown
6:00 AM -43 °F - -51 °F 45% 30.21 in - ENE 2.3 mph - -  
6:00 AM -40.9 °F - -50.6 °F 58% 30.21 in - ENE 2.3 mph - N/A   Unknown
7:00 AM -43.6 °F - -51.9 °F 63% 30.22 in - ENE 2.3 mph - N/A   Unknown
8:00 AM -44.9 °F -59.1 °F -53.1 °F 62% 30.22 in - ENE 3.5 mph - N/A   Unknown
9:00 AM -45 °F - -54 °F 40% 30.24 in - NE 2.3 mph - -  
9:00 AM -45.2 °F - -53.5 °F 62% 30.24 in - NE 2.3 mph - N/A   Unknown
10:00 AM -44.7 °F -58.9 °F -52.8 °F 63% 30.25 in - ENE 3.5 mph - N/A   Unknown
11:00 AM -41.6 °F - -49.4 °F 65% 30.25 in - Calm Calm - N/A   Unknown
12:00 PM -35 °F - -43 °F 48% 30.25 in - ENE 1.2 mph - -  
12:00 PM -35.3 °F - -42.5 °F 68% 30.25 in - ENE 1.2 mph - N/A   Unknown
1:00 PM -32.4 °F - -39.5 °F 69% 30.26 in - Calm Calm - N/A   Unknown
2:00 PM -31.4 °F - -38.4 °F 69% 30.26 in - NE 2.3 mph - N/A   Unknown
3:00 PM -30 °F - -37 °F 53% 30.27 in - Calm Calm - -  
3:00 PM -29.9 °F - -36.8 °F 70% 30.27 in - Calm Calm - N/A   Unknown
4:00 PM -32.3 °F - -39.5 °F 68% 30.26 in - Calm Calm - N/A   Unknown
5:00 PM -35.5 °F - -42.9 °F 67% 30.28 in - NE 2.3 mph - N/A   Unknown
6:00 PM -37 °F - -44 °F 48% 30.30 in - ENE 1.2 mph - -  
6:00 PM -36.8 °F - -44.3 °F 66% 30.30 in - ENE 1.2 mph - N/A   Unknown
7:00 PM -38.9 °F - -46.7 °F 65% 30.30 in - East 2.3 mph - N/A   Unknown
8:00 PM -37.1 °F -50.3 °F -42.7 °F 74% 30.32 in - ENE 3.5 mph - N/A   Unknown
9:00 PM -36 °F - -43 °F 51% 30.33 in - ENE 2.3 mph - -  
9:00 PM -35.5 °F - -42.9 °F 67% 30.33 in - ENE 2.3 mph - N/A   Unknown
10:00 PM -32.4 °F - -39.5 °F 69% 30.33 in - ENE 1.2 mph - N/A   Unknown
11:00 PM -32.6 °F - -39.6 °F 69% 30.35 in - NE 2.3 mph - N/A   Unknown